Weather History for KHOU - August, 2013

Change the Weather History Date:

Thursday, August 8, 2013

  Actual Average Record
Temperature  
Mean Temperature 89 °F 85 °F  
Max Temperature 99 °F 95 °F 104 °F (1962)
Min Temperature 78 °F 75 °F 68 °F (1990)
Cooling Degree Days 24 20  
Month to date cooling degree days 186 160  
Year to date cooling degree days 1943 1933  
Since 1 June cooling degree days 1373 1281  
Growing Degree Days 36 (Base 50)    
Moisture  
Dew Point 73 °F    
Average Humidity 63    
Maximum Humidity 91    
Minimum Humidity 35    
Precipitation  
Precipitation 0.00 in 0.10 in 1.66 in (1920)
Month to date precipitation 0.00 0.83  
Year to date precipitation 17.87 28.94  
Sea Level Pressure  
Sea Level Pressure 29.91 in    
Wind  
Wind Speed 6 mph (South)    
Max Wind Speed 21 mph    
Max Gust Speed 26 mph    
Visibility 10 miles    
Events      
T = Trace of Precipitation, MM = Missing Value Source: NWS Daily Summary

Daily Weather History Graph

Daily Weather History Graph

Search for Another Location

Airport or City:

Trip Planner

Search our weather history database for the weather conditions in past years. The results will help you decide how hot, cold, wet, or windy it might be!

Date:

Astronomy

Aug. 08, 2013 Rise Set
Actual Time 6:45 AM CDT 8:07 PM CDT
Civil Twilight 6:19 AM CDT 8:33 PM CDT
Nautical Twilight 5:49 AM CDT 9:03 PM CDT
Astronomical Twilight 5:17 AM CDT 9:34 PM CDT
Moon 8:20 AM CDT (8/8) 9:02 PM CDT (8/8)
Length of Visible Light 14h 13m
Length of Day
13h 22m
Waxing Crescent, 3% of the Moon is Illuminated
Aug 8
Waxing Crescent
Aug 14
First Quarter
Aug 20
Full
Aug 28
Last Quarter
Sep 5
New

Hourly Weather History & Observations

Time (CDT) Temp. Heat Index Dew Point Humidity Pressure Visibility Wind Dir Wind Speed Gust Speed Precip Events Conditions
12:53 AM 81.0 °F 86.7 °F 75.0 °F 82% 29.93 in 10.0 mi South 5.8 mph - N/A   Partly Cloudy
1:53 AM 80.1 °F 85.1 °F 75.0 °F 85% 29.92 in 10.0 mi South 5.8 mph - N/A   Partly Cloudy
2:53 AM 80.1 °F 85.1 °F 75.0 °F 85% 29.90 in 10.0 mi SSW 4.6 mph - N/A   Partly Cloudy
3:53 AM 79.0 °F - 75.0 °F 88% 29.89 in 8.0 mi South 4.6 mph - N/A   Partly Cloudy
4:53 AM 77.0 °F - 73.9 °F 90% 29.89 in 8.0 mi Calm Calm - N/A   Partly Cloudy
5:53 AM 75.0 °F - 73.9 °F 96% 29.90 in 8.0 mi Calm Calm - N/A   Scattered Clouds
6:53 AM 75.9 °F - 73.9 °F 94% 29.91 in 7.0 mi Calm Calm - N/A   Mostly Cloudy
7:53 AM 78.1 °F - 75.0 °F 90% 29.92 in 7.0 mi SW 3.5 mph - N/A   Partly Cloudy
8:53 AM 82.0 °F 89.4 °F 75.9 °F 82% 29.93 in 9.0 mi SSW 10.4 mph - N/A   Partly Cloudy
9:37 AM 84.2 °F 90.9 °F 73.4 °F 70% 29.93 in 10.0 mi SW 11.5 mph - N/A   Mostly Cloudy
9:53 AM 84.9 °F 92.1 °F 73.9 °F 69% 29.95 in 10.0 mi SSW 13.8 mph - N/A   Scattered Clouds
10:53 AM 88.0 °F 95.6 °F 73.0 °F 61% 29.96 in 10.0 mi SSW 6.9 mph - N/A   Scattered Clouds
11:04 AM 87.8 °F 95.6 °F 73.4 °F 62% 29.95 in 10.0 mi WSW 9.2 mph - N/A   Mostly Cloudy
11:18 AM 89.6 °F 96.2 °F 71.6 °F 55% 29.94 in 10.0 mi SW 6.9 mph - N/A   Mostly Cloudy
11:53 AM 91.0 °F 99.3 °F 73.0 °F 55% 29.95 in 10.0 mi South 9.2 mph - N/A   Partly Cloudy
12:53 PM 93.0 °F 100.7 °F 72.0 °F 50% 29.93 in 10.0 mi Calm Calm - N/A   Partly Cloudy
1:53 PM 93.9 °F 100.8 °F 71.1 °F 47% 29.91 in 10.0 mi SE 9.2 mph - N/A   Partly Cloudy
2:53 PM 97.0 °F 104.8 °F 71.1 °F 43% 29.90 in 10.0 mi Variable 6.9 mph - N/A   Partly Cloudy
3:53 PM 96.1 °F 107.1 °F 73.9 °F 49% 29.88 in 10.0 mi SSE 9.2 mph 16.1 mph N/A   Partly Cloudy
4:53 PM 93.9 °F 104.0 °F 73.9 °F 52% 29.87 in 10.0 mi SSE 15.0 mph 18.4 mph N/A   Partly Cloudy
5:53 PM 91.9 °F 99.5 °F 72.0 °F 52% 29.87 in 10.0 mi SSE 16.1 mph 23.0 mph N/A   Partly Cloudy
6:53 PM 89.1 °F 94.1 °F 70.0 °F 53% 29.86 in 10.0 mi SE 11.5 mph - N/A   Partly Cloudy
7:53 PM 86.0 °F 91.5 °F 71.1 °F 61% 29.87 in 10.0 mi SSE 10.4 mph - N/A   Partly Cloudy
8:53 PM 84.0 °F 91.2 °F 73.9 °F 72% 29.88 in 10.0 mi SSE 9.2 mph - N/A   Partly Cloudy
9:53 PM 81.0 °F 86.2 °F 73.9 °F 79% 29.90 in 10.0 mi SSE 4.6 mph - N/A   Clear
10:53 PM 80.1 °F 85.1 °F 75.0 °F 85% 29.92 in 10.0 mi Calm Calm - N/A   Clear
11:53 PM 79.0 °F - 75.0 °F 88% 29.94 in 10.0 mi Calm Calm - N/A   Clear